Miscellaneous Local Product
Issued by NWS Hastings, NE

Home | Current Version | Previous Version | Graphics & Text | Print | Product List | Glossary On
Versions: 1 2 3 4 5 6 7 8 9 10 11 12 13 14 15 16 17 18 19 20 21 22 23 24 25 26 27 28 29 30 31 32 33 34 35 36 37 38 39 40 41 42 43 44 45 46 47 48 49 50
579
AXUS43 KGID 262202
MISGRI

GID CWA HOURLY WEATHER ROUNDUP
NATIONAL WEATHER SERVICE HASTINGS NE
500 PM CDT MON JUN 26 2017

NOTE: "FAIR" INDICATES FEW OR NO CLOUDS BELOW 12,000 FEET WITH NO
SIGNIFICANT WEATHER AND/OR OBSTRUCTIONS TO VISIBILITY.

...SOUTH CENTRAL NEBRASKA...

CITY           SKY/WX    TMP DP  RH WIND       PRES   REMARKS
GRAND ISLAND   SUNNY     77  53  43 NE13      30.12F
HASTINGS       SUNNY     77  55  46 NE12G21   30.11F
KEARNEY        MOSUNNY   79  54  41 E7        30.12F
ORD            SUNNY     76  40  27 NE10      30.13F
YORK           SUNNY     77  54  44 NE14G20   30.11F
AURORA         MOSUNNY   78  51  39 NE15      30.11S
LEXINGTON      MOSUNNY   78  53  41 E10       30.12F
HOLDREGE       SUNNY     74  60  61 NE7       30.12F
HEBRON         RAIN      67  62  85 N7        30.09F

...NEBRASKA PANHANDLE...

CITY           SKY/WX    TMP DP  RH WIND       PRES   REMARKS
CHADRON        SUNNY     81  36  19 E6G18     30.10F
ALLIANCE       SUNNY     81  36  19 E9        30.14F
SCOTTSBLUFF    SUNNY     83  43  24 SE9G17    30.12F
SIDNEY         MOSUNNY   85  48  27 E8        30.15F

...WESTERN AND NORTH CENTRAL NEBRASKA...

CITY           SKY/WX    TMP DP  RH WIND       PRES   REMARKS
VALENTINE      SUNNY     78  36  21 E8        30.16F
AINSWORTH      SUNNY     75  42  30 E9        30.17F
ONEILL         SUNNY     74  40  29 NE12      30.16F
BROKEN BOW     SUNNY     78  45  30 E12G20    30.14F
IMPERIAL       SUNNY     85  54  34 E12       30.11F
NORTH PLATTE   SUNNY     81  45  28 NE14      30.13F
MCCOOK         SUNNY     81  60  48 E13       30.11R

...EASTERN NEBRASKA...

CITY           SKY/WX    TMP DP  RH WIND       PRES   REMARKS
NORFOLK        MOSUNNY   74  43  32 NE10G16   30.14F
SO SIOUX CITY  MOSUNNY   75  46  35 N7        30.14F
TEKAMAH        PTSUNNY   74  45  35 NE12      30.12F
COLUMBUS       MOSUNNY   75  50  41 N8        30.14S
ALBION         SUNNY     76  45  33 E9        30.15F
OMAHA EPPLEY   MOSUNNY   78  49  35 N13       30.11F
OFFUTT AFB     SUNNY     74  55  50 NE7       30.10F
MILLARD        SUNNY     76  53  44 NE6       30.11F
LINCOLN        MOSUNNY   77  60  55 E8        30.11F
NEBRASKA CITY  MOSUNNY   71  62  74 S6        30.12F
BEATRICE       LGT RAIN  64  62  93 E6        30.12S
FALLS CITY     CLOUDY    68  59  73 E5        30.12F

...NORTHERN KANSAS...

CITY           SKY/WX    TMP DP  RH WIND       PRES   REMARKS
GOODLAND       SUNNY     82  55  39 CALM      30.11F
HILL CITY      MOSUNNY   81  60  48 S3        30.08F
NORTON         CLEAR     81  57  44 E9G16     30.09
PHILLIPSBURG   PTSUNNY   86  55  35 NE12      30.07F
SMITH CENTER   SUNNY     82  57  42 NE6       30.08F
HAYS           MOSUNNY   82  63  52 NE3       30.07F
RUSSELL        MOSUNNY   83  59  44 CALM      30.04F
CONCORDIA      MOSUNNY   81  61  50 E7        30.06F
SALINA         MOSUNNY   88  59  37 SW7       30.03F
TOPEKA         PTSUNNY   76  59  55 E9        30.10F



USA.gov is the U.S. government's official web portal to all federal, state and local government web resources and services.